This is the latest recevied weather packets stored in our database for station/object KB4RFE. If no packets are shown the sender has not sent any weather packets the latest 10 day(s).
| Time | Temp. | Humidity | Pressure | Rain* | Wind** | Luminosity | Snow |
|---|---|---|---|---|---|---|---|
| 1777405740 | 21.11° C | 77% | 1020.5 hPa | 0 mm | - | 315 W/m² | - |
| 1777405436 | 21.11° C | 78% | 1020.2 hPa | 0 mm | - | 350 W/m² | - |
| 1777405133 | 21.11° C | 77% | 1020.1 hPa | 0 mm | - | 371 W/m² | - |
| 1777404832 | 21.11° C | 77% | 1020.7 hPa | 0 mm | - | 339 W/m² | - |
| 1777404529 | 21.11° C | 75% | 1021.2 hPa | 0 mm | - | 387 W/m² | - |
| 1777404224 | 21.11° C | 76% | 1021.4 hPa | 0 mm | - | 361 W/m² | - |
| 1777403921 | 21.11° C | 74% | 1021.3 hPa | 0 mm | - | 319 W/m² | - |
| 1777403620 | 21.67° C | 76% | 1021.1 hPa | 0 mm | - | 249 W/m² | - |
| 1777403315 | 21.67° C | 76% | 1021.5 hPa | 0 mm | - | 282 W/m² | - |
| 1777403010 | 21.67° C | 75% | 1021.7 hPa | 0 mm | - | 310 W/m² | - |
| 1777402706 | 21.67° C | 68% | 1021.8 hPa | 0 mm | - | 300 W/m² | - |
| 1777402405 | 22.22° C | 68% | 1021.7 hPa | 0 mm | - | 367 W/m² | - |
| 1777402104 | 22.22° C | 67% | 1022 hPa | 0 mm | - | 326 W/m² | - |
| 1777401800 | 22.22° C | 67% | 1022.1 hPa | 0 mm | - | 310 W/m² | - |
| 1777401499 | 22.22° C | 68% | 1022.3 hPa | 0 mm | - | 343 W/m² | - |
| 1777401195 | 22.22° C | 67% | 1022.5 hPa | 0 mm | - | 642 W/m² | - |
| 1777400891 | 22.22° C | 67% | 1022.7 hPa | 0 mm | - | 282 W/m² | - |
| 1777400587 | 22.22° C | 65% | 1023 hPa | 0 mm | - | 230 W/m² | - |
| 1777400285 | 22.22° C | 66% | 1023 hPa | 0 mm | - | 246 W/m² | - |
| 1777399980 | 22.22° C | 66% | 1023.2 hPa | 0 mm | - | 328 W/m² | - |
| 1777399677 | 22.22° C | 65% | 1023.4 hPa | 0 mm | - | 373 W/m² | - |
| 1777399374 | 22.22° C | 63% | 1023.6 hPa | 0 mm | - | 261 W/m² | - |
| 1777399072 | 22.22° C | 64% | 1023.6 hPa | 0 mm | - | 263 W/m² | - |
| 1777398769 | 22.22° C | 65% | 1024 hPa | 0 mm | - | 294 W/m² | - |
| 1777398466 | 22.78° C | 63% | 1024.1 hPa | 0 mm | - | 163 W/m² | - |
* Rain latest hour (hover to see other rain measurements)
** Current wind speed in m/s (hover to see current wind gust speed)